Tracking 34794 objects as of 19-Jul-2026
HD Live streaming from Space Station
objects crossing your sky now

STARLINK-11372

Track STARLINK-11372 now!
10-day predictions
STARLINK-11372 is classified as:


NORAD ID: 61576
Int'l Code: 2024-187C
Perigee: 366.4 km
Apogee: 367.3 km
Inclination: 53.2 °
Period: 91.7 minutes
Semi major axis: 6737 km
RCS: Unknown
Launch date: October 18, 2024
Source: United States (US)
Launch site: AIR FORCE EASTERN TEST RANGE (AFETR)
Your satellite tracking list
Your tracking list is empty




NASA's NSSDC Master Catalog

Two Line Element Set (TLE):
1 61576U 24187C   26199.73457318 -.00000066  00000-0  43108-5 0  9996
2 61576  53.1595  10.1572 0000705 122.7193 237.3893 15.69709825101333
Source of the keplerian elements: AFSPC